This is the latest recevied weather packets stored in our database for station/object 9W8AKN-13. If no packets are shown the sender has not sent any weather packets the latest 10 day(s).
| Time | Temp. | Humidity | Pressure | Rain* | Wind** | Luminosity | Snow |
|---|---|---|---|---|---|---|---|
| 1787800944 | 28.89° C | 74% | 1013.2 hPa | - | - | - | - |
| 1787799146 | 28.33° C | 78% | 1013.5 hPa | - | - | - | - |
| 1787798246 | 28.33° C | 78% | 1013.8 hPa | - | - | - | - |
| 1787797346 | 28.33° C | 78% | 1014 hPa | - | - | - | - |
| 1787796446 | 28.33° C | 80% | 1014 hPa | - | - | - | - |
| 1787795546 | 27.78° C | 81% | 1014.1 hPa | - | - | - | - |
| 1787794646 | 27.78° C | 84% | 1014 hPa | - | - | - | - |
| 1787793746 | 27.78° C | 86% | 1014 hPa | - | - | - | - |
| 1787792845 | 27.22° C | 89% | 1014.2 hPa | - | - | - | - |
| 1787791945 | 27.22° C | 92% | 1013.9 hPa | - | - | - | - |
| 1787791045 | 27.22° C | 92% | 1014.1 hPa | - | - | - | - |
| 1787790145 | 27.22° C | 91% | 1013.9 hPa | - | - | - | - |
| 1787789245 | 27.22° C | 93% | 1013.7 hPa | - | - | - | - |
| 1787788347 | 26.67° C | 93% | 1013.4 hPa | - | - | - | - |
| 1787787445 | 26.67° C | 93% | 1013.3 hPa | - | - | - | - |
| 1787786545 | 26.67° C | 93% | 1013.2 hPa | - | - | - | - |
| 1787785645 | 26.67° C | 93% | 1013.1 hPa | - | - | - | - |
| 1787784745 | 26.67° C | 93% | 1013.1 hPa | - | - | - | - |
| 1787783845 | 26.67° C | 92% | 1012.9 hPa | - | - | - | - |
| 1787782944 | 26.67° C | 92% | 1012.8 hPa | - | - | - | - |
| 1787782044 | 26.67° C | 91% | 1012.7 hPa | - | - | - | - |
| 1787781144 | 26.67° C | 91% | 1012.8 hPa | - | - | - | - |
| 1787780244 | 26.67° C | 91% | 1012.7 hPa | - | - | - | - |
| 1787779344 | 26.67° C | 91% | 1012.5 hPa | - | - | - | - |
| 1787777957 | 26.67° C | 91% | 1012.4 hPa | - | - | - | - |
* Rain since midnight (hover to see other rain measurements)
** Current wind speed in m/s (hover to see current wind gust speed)